Simultaneous Nadir Overpasses (SNOs) Predictions

Prediction of SNOs between TERRA and METOP-C Satellite Orbit:

Table of predicted SNOs for the next 14.0 days since TLE Epoch: 5/23/2020
Index Date (TERRA) Time (TERRA) Lat,Lon (TERRA) SZA (TERRA ) Date (METOP-C) Time (METOP-C) Lat,Lon (METOP-C) SZA (METOP-C ) Distance(km) Time Diff (sec)
1 05/23/2020 04:37:08 81.30, 158.00 63.65 05/23/2020 04:36:09 81.30, 158.15 63.64 2.56 59
2 05/23/2020 05:26:34 -81.31, -34.12 116.33 05/23/2020 05:26:49 -81.31, -34.03 116.31 1.52 15
3 05/26/2020 00:11:23 81.29,-135.66 63.12 05/26/2020 00:10:32 81.30,-135.58 63.11 1.76 51
4 05/26/2020 01:00:49 -81.31, 32.24 116.85 05/26/2020 01:01:12 -81.31, 32.31 116.83 1.09 23
5 05/28/2020 19:45:37 81.30, -68.99 62.69 05/28/2020 19:44:54 81.31, -68.92 62.68 1.16 43
6 05/28/2020 20:35:04 -81.30, 98.57 117.33 05/28/2020 20:35:35 -81.31, 98.63 117.30 1.39 31
7 05/31/2020 15:19:51 81.29, -2.74 62.25 05/31/2020 15:19:16 81.30, -2.67 62.24 1.57 35
8 05/31/2020 16:09:17 -81.31, 165.22 117.71 05/31/2020 16:09:56 -81.31, 165.33 117.68 1.79 39
9 06/03/2020 10:54:05 81.30, 63.84 61.90 06/03/2020 10:53:38 81.31, 63.97 61.90 2.18 27




NCC Satellite Simultaneous Nadir Overpasses (SNOs) Prediction Service
